Home   Weather   Preveza   Past weeks

Flag for Greece Past Weather in Preveza, Greece — Yesterday and Last 2 Weeks

Now
54 °F

Sunny.


Feels Like: 51 °F
Forecast: 53 / 67 °F
Wind: 8 mph from Northeast

Location: Aktion Airport

Current Time: Apr 24, 2017 at 8:41:05 am

Latest Report: Apr 24, 2017 at 7:50 am


Visibility: 10 mi

Pressure: 30.15 "Hg

Humidity: 82%

Dew Point: 48 °F

Location of PrevezaLocation

Past Weather in Preveza — Graph

°F

Preveza Temperature Yesterday

Maximum temperature yesterday: 64 °F (at 2:50 pm)
Minimum temperature yesterday: 43 °F (at 3:50 am)
Average temperature yesterday: 56 °F

High & Low Weather Summary for the Past Weeks

 TemperatureHumidityPressure
High72 °F (Apr 13, 12:20 pm)100% (Apr 23, 5:20 am)30.24 "Hg (Apr 23, 5:20 am)
Low43 °F (Apr 21, 4:50 am)34% (Apr 21, 1:20 pm)29.77 "Hg (Apr 17, 6:50 am)
Average60 °F67%29.99 "Hg
* Reported Apr 9 7:20 am — Apr 24 7:20 am, Preveza, Weather by CustomWeather, © 2017

Note: Actual official high and low records may vary slightly from our data, if they occured in-between our weather recording intervals... More about our weather records

Advertising

Preveza Weather History for the Previous 24 Hours

Scroll right to see more
 ConditionsComfort  
Time TempWeatherWind HumidityBarometerVisibility
7:20 am
Mon, Apr 24
52 °FPassing clouds.6 mph82%30.15 "HgN/A
6:50 am50 °FPassing clouds.7 mph88%30.15 "HgN/A
5:50 am52 °FClear.8 mph82%30.15 "Hg10 mi
4:50 am50 °FClear.7 mph82%30.15 "Hg10 mi
3:50 am50 °FClear.5 mph82%30.15 "Hg10 mi
2:50 am50 °FClear.5 mph82%30.15 "Hg10 mi
1:50 am50 °FClear.6 mph82%30.18 "Hg10 mi
12:50 am52 °FClear.6 mph72%30.15 "Hg10 mi
11:50 pm
Sun, Apr 23
52 °FClear.7 mph72%30.15 "Hg10 mi
10:50 pm54 °FClear.7 mph67%30.15 "Hg10 mi
9:50 pm55 °FClear.9 mph63%30.15 "Hg10 mi
8:50 pm57 °FClear.12 mph59%30.12 "Hg10 mi
8:20 pm57 °FClear.12 mph63%30.12 "Hg10 mi
7:50 pm59 °FPassing clouds.13 mph55%30.09 "HgN/A
6:50 pm61 °FPassing clouds.12 mph52%30.09 "HgN/A
5:50 pm63 °FPassing clouds.12 mph49%30.09 "HgN/A
5:20 pm64 °FPassing clouds.12 mph46%30.09 "HgN/A
4:50 pm64 °FPassing clouds.14 mph46%30.09 "HgN/A
3:50 pm63 °FPassing clouds.13 mph49%30.09 "HgN/A
3:20 pm63 °FPassing clouds.13 mph52%30.09 "HgN/A
2:50 pm64 °FPassing clouds.13 mph46%30.09 "HgN/A
2:20 pm63 °FPassing clouds.12 mph49%30.09 "HgN/A
1:50 pm63 °FPassing clouds.9 mph49%30.09 "HgN/A
1:20 pm63 °FPassing clouds.9 mph45%30.12 "HgN/A
12:50 pm63 °FPassing clouds.8 mph45%30.09 "HgN/A
12:20 pm61 °FPassing clouds.8 mph45%30.09 "HgN/A
11:50 am61 °FPassing clouds.6 mph48%30.09 "HgN/A
11:20 am59 °FPassing clouds.5 mph59%30.09 "HgN/A
10:50 am59 °FPassing clouds.5 mph59%30.09 "HgN/A
10:20 am57 °FPassing clouds.7 mph67%30.09 "HgN/A
9:50 am55 °FPassing clouds.7 mph72%30.09 "HgN/A
9:20 am55 °FSunny.8 mph72%30.09 "Hg10 mi
8:50 am54 °FSunny.9 mph77%30.07 "Hg10 mi
8:20 am52 °FSunny.7 mph82%30.07 "Hg10 mi
Weather by CustomWeather, © 2017

See weather overviewHow to use our weather pages